Regional Weather Roundup
Issued by NWS Spokane, WA

Home | Current Version | Previous Version | Text Only | Print | Product List | Glossary On
Versions: 1 2 3 4 5 6 7 8 9 10 11 12 13 14 15 16 17 18 19 20 21 22 23 24 25 26 27 28 29 30 31 32 33 34 35 36 37 38 39 40 41 42 43 44 45 46 47 48 49 50
000
NZUS01 KOTX 261305
RWROTX

Eastern Washington/Northern Idaho Roundup
National Weather Service, Spokane WA
600 AM PDT SUN MAR 26 2017

Note: "fair" indicated few or no clouds below 12,000 feet with no
significant weather and/or obstructions to visibility.

...Northeast Washington and Northern Idaho Panhandle...

CITY           SKY/WX    TMP DP  RH WIND       PRES   REMARKS
Spokane Intl   MOCLDY    34  31  88 CALM      29.94F
Spokane Downto MOCLDY    35  32  88 NE5       29.96F
Coeur d Alene  CLOUDY    31  30  96 E5        29.97F WCI  26
Deer Park      CLOUDY    33  29  85 NE5       29.95F WCI  29
Sandpoint      PTCLDY    30  30 100 CALM      29.99F FOG
Bonners Ferry  FAIR      30  28  93 CALM      29.98F

...Southeast Washington and southern Idaho Panhandle...

CITY           SKY/WX    TMP DP  RH WIND       PRES   REMARKS
Walla Walla    MOCLDY    40  35  83 E7        29.92F
Pullman/Moscow MOCLDY    38  32  79 E14       29.95F
Lewiston       MOCLDY    38  34  85 SE3       29.97F
Lowell           N/A     39  35  86 CALM      30.04F
Grangeville    CLOUDY    32  32 100 CALM      29.94F VSB 1/2

...Columbia Basin...

CITY           SKY/WX    TMP DP  RH WIND       PRES   REMARKS
Ephrata        PTCLDY    34  27  75 N7        29.92F WCI  28
Moses Lake     PTCLDY    32  30  92 N3        29.93F
Pasco          CLOUDY    41  36  82 E3        29.94F
Richland       PTSUNNY   42  38  84 CALM      29.94F
Hermiston      CLOUDY    38  36  92 SE5       29.92F
Pendleton      MOCLDY    36  35  96 SE6       29.91F

...East Slopes Cascades...

CITY           SKY/WX    TMP DP  RH WIND       PRES   REMARKS
The Dalles     CLOUDY    42  39  89 CALM      29.92F
Yakima         MOCLDY    36  32  85 W5        29.91F
Ellensburg     CLOUDY    32  28  85 CALM      29.89F
Wenatchee      PTCLDY    37  30  75 N5        29.91F
Omak           MOCLDY    32  25  75 NW3       29.94F
Sunnyside      PTSUNNY   37  33  86 CALM      29.91F

...Southern British Columbia...

CITY           SKY/WX    TMP DP  RH WIND       PRES   REMARKS

...Western Montana...

CITY           SKY/WX    TMP DP  RH WIND       PRES   REMARKS
Kalispell      PTSUNNY   26  24  92 N3        29.98F
Missoula       PTCLDY    28  26  92 CALM      30.02R

...Neighboring Cities...

CITY           SKY/WX    TMP DP  RH WIND       PRES   REMARKS
Seattle        CLOUDY    44  38  79 SE6       29.87F
Portland       CLOUDY    45  40  82 E12       29.90F
Boise          CLEAR     40  27  59 SE10      29.95S
Great Falls    PTCLDY    33  22  63 SW10      29.92R WCI  25



USA.gov is the U.S. government's official web portal to all federal, state and local government web resources and services.